Tracking 17828 objects as of 30-July-2016
HD Live streaming from Space Station
objects crossing your sky now

ASTRA 1A

Track ASTRA 1A now!
ASTRA 1A is classified as:


NORAD ID: 19688
Int'l Code: 1988-109B
Perigee: 36,284.6 km
Apogee: 36,405.9 km
Inclination: 12.5 °
Period: 1,464.4 minutes
Semi major axis: 42716 km
RCS: 12.5892 m2 (large)
Launch date: December 11, 1988
Source: Luxembourg (LUXE)
Launch site: FRENCH GUIANA (FRGUI)

ASTRA 1 was a Luxembourg television satellite launched from Kourou, French Guiana. It was owned and operated by Societe Europienne des Satellites (SES), a private company formed in 1985. It carried 16 Ku-band transponders (with six spares) and had a design life of 12 years.
Your satellite tracking list
Your tracking list is empty





NASA's NSSDC Master Catalog

Two Line Element Set (TLE):
1 19688U 88109B   16211.36281803 -.00000029 +00000-0 +00000-0 0  9992
2 19688 012.5045 034.6453 0014204 046.8032 241.2190 00.98336079080585
Source of the keplerian elements: AFSPC

N2YO: 1122